Location: *
(32.1543°S, 82.8525°E)
Time: 09:52:06
(UTC+00:00)

Daily predictions for brighter satellites

Satellite Brightness Start Highest point End
(mag) Time Altitude Azimuth Time Altitude Azimuth Time Altitude Azimuth
Okean O Rocket 3.5 13:55:52 10° ESE 13:57:43 12° E 13:59:34 10° ENE
Cosmos 1805 Rocket 3.8 13:55:29 10° NNE 13:59:41 50° E 14:03:55 10° SSE
Cosmos 1954 Rocket 4.4 14:02:01 10° NNW 14:07:09 67° WSW 14:12:20 10° S
CZ-4 R/B 2.1 14:04:30 10° SSE 14:08:16 34° E 14:12:00 10° NNE
Cosmos 1745 Rocket 4.0 14:01:59 10° S 14:08:22 80° E 14:14:34 10° N
Cosmos 1743 Rocket 3.5 14:06:13 10° N 14:10:31 72° E 14:14:54 10° S
Sich 1 3.0 14:06:40 10° N 14:10:53 65° E 14:15:12 10° SSE
CZ-4B R/B 3.5 14:10:54 10° S 14:15:16 70° WSW 14:19:39 10° NNW
Landsat 7 3.8 14:12:47 10° SSE 14:17:30 60° E 14:22:09 10° N
Delta 142 4.0 14:17:16 10° W 14:21:09 42° N 14:24:24 15° ENE
H-2A ROCKET BODY 3.8 14:16:40 10° NNW 14:21:19 31° NE 14:35:43 10° E
Cosmos 1674 3.8 14:19:12 10° SSE 14:22:16 25° E 14:24:12 16° ENE
Hubble Space Telescope 2.9 14:22:26 10° NNE 14:22:26 10° NNE 14:22:26 10° NNE
YAOGAN 1 3.5 14:22:07 10° S 14:26:22 51° WSW 14:30:32 10° NNW
SJ-6B 2.8 14:22:54 10° SSE 14:26:32 53° E 14:30:08 10° N
Cosmos 2369 Rocket 3.9 14:21:58 10° SW 14:26:51 31° WNW 14:31:41 10° NNW
Iridium 4 Rocket 4.1 14:21:49 10° NNE 14:27:11 44° E 14:32:14 10° SSE
SL-16 Debris 4.4 14:28:00 10° NNW 14:29:35 15° N 14:29:35 15° N
Cosmos 968 Rocket 4.4 14:26:24 11° NNE 14:30:39 28° E 14:35:07 10° SE
CZ-4B R/B 3.5 14:25:40 10° SSE 14:31:09 50° E 14:36:37 10° N
ISS -3.6 14:29:15 10° NW 14:32:37 75° SW 14:36:02 10° SE
USA 290 2.2 14:29:33 10° SSW 14:32:47 78° WNW 14:35:14 16° NNE
USA 267 3.7 14:31:23 15° ENE 14:36:50 55° SE 14:43:14 10° SSW
Cosmos 1726 2.2 14:34:42 17° NNE 14:37:00 45° E 14:40:17 10° SSE
Cosmos 1833 Rocket 3.4 14:33:54 10° NNE 14:38:47 32° ENE 14:43:44 10° SE
PAYLOAD B 4.2 14:33:46 10° SSE 14:39:20 85° ENE 14:44:52 10° NNW
Cosmos 1975 4.0 14:38:57 21° ENE 14:39:54 23° E 14:43:02 10° SE
Cosmos 1626 2.0 14:36:48 10° S 14:40:15 75° W 14:43:08 14° N
USA 305 1.8 14:37:51 10° NW 14:40:54 81° SW 14:43:36 10° SE
USA 186 2.1 14:38:54 10° SSE 14:42:13 48° E 14:44:13 21° NNE
Cosmos 1763 Rocket 3.7 14:37:42 10° SSW 14:42:48 69° WNW 14:47:31 12° N
Cosmos 540 Rocket 3.4 14:38:49 10° SSW 14:43:59 80° ESE 14:47:45 18° NNE
Cosmos 1633 Rocket 3.4 14:44:37 20° NNE 14:47:23 46° E 14:51:38 10° SSE
Meteor 1-11 Rocket 4.5 14:45:39 10° NNW 14:51:06 55° W 14:56:46 10° S
KORONAS-FOTON 3.8 14:47:22 10° S 14:51:11 63° E 14:52:59 28° NNE
Landsat 5 3.4 14:48:48 19° NNE 14:51:46 89° W 14:55:51 10° SSW
SWIFT 4.5 14:51:41 10° NNW 14:52:52 11° NNW 14:52:58 11° N
Cosmos 468 Rocket 4.1 14:48:30 10° SSW 14:53:44 79° WNW 14:57:33 19° N
PSLV R/B 3.6 14:50:36 10° S 14:54:18 87° WSW 14:57:27 13° NNW
In-Cosmos 22 4.2 14:50:36 10° S 14:55:53 58° E 14:58:50 25° NNE
ATLAS 2AS CENTAUR R/B 2.5 14:49:58 10° NNW 14:56:24 64° ENE 15:03:04 10° SE
Resurs 01 Rocket 2.1 14:53:00 10° SSE 14:57:12 39° E 14:58:38 30° NE
Cosmos 841 Rocket 3.9 14:52:34 10° S 14:57:34 47° ESE 14:59:52 28° NE
Cosmos 1470 Rocket 4.2 14:57:25 30° NE 14:58:43 37° E 15:02:52 10° SSE
Okean-O 3.6 14:55:33 10° SE 14:59:25 28° E 14:59:46 28° ENE
BREEZE-M DEB (TANK) 4.4 14:41:34 10° NW 15:00:16 49° NNE 15:03:11 17° E
CSL-04 Rocket 3.8 14:56:36 10° SSE 15:02:06 57° E 15:05:54 20° N
Cosmos 2074 Rocket 4.4 14:56:27 10° S 15:02:30 46° E 15:05:30 28° NE
Yuri Rocket 3.2 15:00:37 10° WNW 15:04:38 48° N 15:05:47 37° NE
USA 307 4.1 15:02:37 10° WNW 15:05:16 28° SW 15:07:41 10° SSE
Cosmos 1340 Rocket 3.0 15:04:32 10° SSW 15:08:31 67° W 15:10:24 28° N
Nadezhda 1 Rocket 4.4 15:05:12 26° NNE 15:08:32 47° E 15:14:40 10° SSE
Feng Yun 1-1 Rocket 4.1 15:06:44 10° SSE 15:12:13 87° WSW 15:17:29 11° NNW
SPOT 1/Viking Rocket 3.6 15:10:40 10° S 15:15:54 81° WSW 15:20:32 13° NNW
SL-8 R/B 3.9 15:11:19 10° NNW 15:15:56 47° NE 15:20:36 10° ESE
SeaSat 1 4.4 15:12:21 10° NNW 15:16:13 23° WNW 15:20:06 10° SW
Cosmos 2154 Rocket 4.4 15:10:47 10° S 15:16:55 46° E 15:19:11 33° NE
Meteor 2-10 4.3 15:13:25 11° NNW 15:18:57 77° W 15:24:36 10° S
Cosmos 1707 3.2 15:15:47 10° SSW 15:19:26 52° W 15:20:51 32° NNW
Cosmos 1656 3.9 15:19:02 10° S 15:24:22 52° ESE 15:25:52 40° ENE
Tiangong -0.4 15:21:40 10° W 15:24:35 33° SSW 15:26:47 15° SE
Atlas Centaur 2 3.6 15:17:17 10° W 15:24:44 38° NNW 15:27:24 29° NNE
CSL-04 Debris 4.3 15:23:08 10° S 15:28:34 72° WSW 15:33:01 15° NNW
Cosmos 2082 Rocket 3.5 15:30:46 23° E 15:30:46 23° E 15:34:05 10° SE
ADEOS Rocket 3.5 15:24:06 10° S 15:30:03 57° WSW 15:35:32 10° NNW
Meteor 1-21 4.3 15:26:16 10° S 15:32:03 65° E 15:33:41 45° NE
Cosmos 1933 Rocket 3.9 15:33:31 46° ESE 15:33:31 46° ESE 15:37:24 10° SSE
Okean O Rocket 2.7 15:29:58 10° S 15:34:10 43° WSW 15:37:43 13° NW
Cosmos 1707 Rocket 4.2 15:33:11 10° SSW 15:37:35 53° W 15:39:03 36° NNW
SPOT 5 4.1 15:36:40 10° SE 15:39:35 27° ESE 15:39:35 27° ESE
CZ-4 R/B 4.4 15:40:27 10° SW 15:42:37 14° WSW 15:44:47 10° WNW
Cosmos 2184 Rocket 4.0 15:37:21 10° S 15:43:46 82° W 15:46:19 39° N
Okean 3 3.4 15:44:16 10° S 15:48:21 80° SE 15:48:21 80° SE
CARTOSAT-1 4.0 15:44:21 10° S 15:48:37 59° WSW 15:49:48 42° NW
Cosmos 44 Rocket 4.5 15:50:47 28° ESE 15:50:47 28° ESE 15:53:14 10° SE
Cosmos 1703 Rocket 4.3 15:47:34 10° S 15:51:17 42° SE 15:51:17 42° SE
ATLAS 3B R/B 4.5 15:48:17 10° S 15:52:02 16° SE 15:54:40 13° ESE
Cosmos 1697 Rocket 3.5 15:46:50 10° S 15:52:04 36° ESE 15:52:39 35° ESE
NOSS 2-3 (C) 4.4 15:45:44 10° SSW 15:52:47 59° SE 15:53:51 51° E
Okean 1-7 3.2 15:51:18 10° S 15:55:16 66° SE 15:55:16 66° SE
NOSS 2-3 (D) 4.4 15:51:29 10° SSW 15:58:37 62° SE 15:59:33 54° E
Cosmos 1610 Rocket 4.4 15:52:42 10° S 15:59:00 83° E 16:00:19 58° NNE
SJ 16-02 1.4 15:59:51 72° WSW 15:59:52 72° WSW 16:04:18 10° S
MetOp-B 4.1 15:55:05 10° SSE 16:00:20 61° E 16:00:20 61° E
H-2A R/B 3.6 16:11:39 27° SE 16:11:39 27° SE 16:14:27 10° S
Lacrosse 5 rocket 3.6 16:12:55 10° S 16:14:26 15° SSE 16:14:26 15° SSE
USA 267 4.2 16:18:44 32° NW 16:19:53 34° NW 16:25:44 10° WSW
Cosmos 962 Rocket 4.3 16:13:50 10° S 16:20:05 74° E 16:20:23 73° ENE
BREEZE-M TANK 4.1 16:17:35 10° WSW 16:22:22 85° NW 16:26:04 44° NE
Cosmos 1869 Rocket 4.4 16:25:32 47° S 16:25:32 47° S 16:28:43 10° S
Cosmos 2366 rocket 4.3 16:20:22 10° S 16:26:07 50° ESE 16:26:07 50° ESE
Cosmos 1980 Rocket 3.3 16:21:48 10° S 16:26:46 33° ESE 16:26:46 33° ESE
NOSS 2-3 (E) 4.2 16:20:39 10° SSW 16:27:34 72° WNW 16:27:36 72° WNW
Cosmos 2181 Rocket 3.9 16:31:42 74° E 16:31:43 74° E 16:38:05 10° S
Resurs 01 Rocket 4.3 16:30:45 10° SSW 16:33:14 15° WSW 16:35:43 10° WNW
SPOT 3 Rocket 4.3 16:29:17 10° SSE 16:33:04 45° SE 16:33:04 45° SE
Terra 2.8 16:30:36 10° SSE 16:33:40 39° SSE 16:33:40 39° SSE
Spot 2 Rocket 4.1 16:46:29 10° SSE 16:50:26 53° S 16:50:26 53° S
Cosmos 2341 Rocket 4.0 16:46:25 10° S 16:52:48 73° W 16:52:50 73° W
Cosmos 2369 4.4 16:53:22 10° S 16:58:00 47° SE 16:58:00 47° SE
Ariane Rocket 3.7 16:56:08 10° S 17:00:21 51° SW 17:00:21 51° SW
Cosmos 2218 Rocket 4.0 16:55:23 10° S 17:01:08 76° SSW 17:01:08 76° SSW
Nadezhda 3 Rocket 4.5 17:07:08 52° SE 17:07:08 52° SE 17:12:19 10° SSE
ATLAS CENTAUR R/B 3.5 17:03:14 10° SSW 17:05:25 26° S 17:05:25 26° S
COSMOS 2406 4.1 17:08:15 42° WSW 17:08:43 42° WSW 17:14:13 10° S
Cosmos 2082 Rocket 3.4 17:12:32 34° W 17:13:20 36° WSW 17:18:35 10° S
ERS-1 Rocket 4.4 17:15:53 10° S 17:19:59 33° WSW 17:19:59 33° WSW
NOSS 3-1 (C) 4.0 17:19:38 10° SSW 17:23:44 44° SW 17:23:44 44° SW
Cosmos 1821 Rocket 4.3 17:24:41 10° S 17:30:09 67° S 17:30:09 67° S
NOSS 3-1 (A) 4.1 17:26:26 10° SSW 17:31:00 43° SSE 17:31:00 43° SSE
Cosmos 1697 Rocket 4.5 17:31:14 10° SW 17:34:23 22° W 17:34:23 22° W
ATLAS 3B R/B 3.0 17:37:03 10° SSW 17:41:53 56° SW 17:41:53 56° SW
Cosmos 2322 Rocket 4.0 17:45:04 10° S 17:49:02 23° SE 17:49:02 23° SE
BREEZE-M (TANK) 4.3 17:36:15 10° SW 17:50:01 52° SSE 17:50:22 51° SE
Cosmos 1980 Rocket 4.1 18:05:58 10° SW 18:08:30 21° WSW 18:08:30 21° WSW
Aureole 1 Rocket 4.5 18:13:53 77° SW 18:13:53 77° SW 18:21:13 10° SSE
SL-16 R/B 3.2 18:15:11 10° SSW 18:19:00 43° S 18:19:00 43° S
CZ-2D R/B 4.3 18:24:15 18° ESE 18:24:23 18° ESE 18:28:00 10° SSE
Cosmos 2333 Rocket 3.6 18:27:19 10° S 18:31:48 31° SE 18:31:48 31° SE
Cosmos 1727 Rocket 4.4 18:57:35 60° S 18:57:35 60° S 19:02:39 10° S
Cosmos 2219 Rocket 3.4 19:01:24 10° S 19:06:18 36° ESE 19:06:18 36° ESE
Cosmos 2360 Rocket 3.1 19:02:41 10° SSW 19:06:30 44° SSW 19:06:30 44° SSW
Resurs 1-4 Rocket 3.1 19:11:52 43° SE 19:11:52 43° SE 19:15:50 10° S
USA 229 DEB 4.4 19:06:11 10° SW 19:10:10 38° SW 19:10:10 38° SW
USA 229 4.4 19:06:14 10° SW 19:10:14 39° SW 19:10:14 39° SW
MSX 4.2 19:28:16 60° SE 19:28:16 60° SE 19:33:18 10° S
Cosmos 2322 Rocket 3.9 19:28:25 10° SW 19:30:48 23° SW 19:30:48 23° SW
Cosmos 2100 Rocket 4.1 19:27:56 10° S 19:33:30 72° SSE 19:33:30 72° SSE
NPP 4.4 19:42:28 46° SSW 19:42:28 46° SSW 19:46:19 10° SSW
Cosmos 1459 Rocket 4.0 19:34:50 10° S 19:40:47 77° SSE 19:40:47 77° SSE
Cosmos 1725 Rocket 4.4 19:39:20 10° S 19:45:36 57° E 19:46:04 55° E
Cosmos 2297 Rocket 2.9 19:48:15 46° E 19:48:15 46° E 19:53:03 10° SSE
Cosmos 1802 Rocket 3.9 19:45:13 10° S 19:51:24 79° ESE 19:51:24 79° ESE
IDEFIX/ARIANE 42P 3.6 20:01:08 36° SW 20:01:08 36° SW 20:04:30 10° SSW
CZ-2D R/B 3.1 20:05:32 38° SW 20:05:32 38° SW 20:09:17 10° SSW
ADEOS II 2.5 20:08:22 56° SW 20:08:22 56° SW 20:12:36 10° SSW
Cosmos 1455 Rocket 4.1 20:09:31 43° SSE 20:09:31 43° SSE 20:12:34 10° SSE
Cosmos 1864 Rocket 4.4 20:01:54 10° S 20:08:20 86° W 20:08:31 84° NW
CZ-2C R/B 4.1 20:07:57 38° ENE 20:09:35 48° ESE 20:15:13 10° S
Cosmos 1461 4.3 20:06:02 10° S 20:10:02 36° ESE 20:10:05 36° ESE
COSMOS 2428 2.7 20:09:44 10° SSW 20:15:27 74° ESE 20:15:53 70° ENE
Cosmos 2333 Rocket 4.0 20:11:40 10° SW 20:13:46 20° WSW 20:13:46 20° WSW
IRIDIUM 114 4.4 20:14:02 10° S 20:19:15 75° ESE 20:19:15 75° ESE
Cosmos 2237 Rocket 3.9 20:18:29 10° S 20:23:31 31° ESE 20:28:30 10° NE
Meteor 2-15 4.3 20:17:47 10° S 20:23:59 87° E 20:24:48 69° NNE
Cosmos 2263 Rocket 4.5 20:23:06 11° NE 20:25:42 15° E 20:28:50 10° ESE
Cosmos 2061 Rocket 3.8 20:19:42 10° S 20:25:59 85° W 20:26:47 70° N
IRIDIUM 103 4.2 20:23:10 10° S 20:28:23 86° SW 20:28:23 86° SW
Cosmos 1447 Rocket 4.4 20:29:57 65° N 20:31:00 88° E 20:37:24 10° S
Cosmos 2016 Rocket 4.1 20:25:03 10° SSW 20:31:18 57° W 20:31:28 57° W
Meteor 2-8 Rocket 4.4 20:25:57 10° S 20:32:06 77° E 20:33:38 52° NNE
BREEZE-M DEB (TANK) 3.9 20:35:53 26° E 20:35:53 26° E 20:38:43 10° ENE
Aurora 2 Rocket 4.2 20:37:21 49° NNW 20:38:41 53° N 20:45:47 10° ENE
ALOS 2.2 20:42:06 84° SW 20:42:06 84° SW 20:46:41 10° SSW
Cosmos 2322 4.2 20:37:09 10° SSW 20:41:45 44° WSW 20:41:45 44° WSW
Cosmos 2227 Rocket 2.1 20:43:41 65° N 20:44:34 83° ENE 20:50:18 10° SSE
SEDSat Delta rocket 3.6 20:45:50 45° ENE 20:45:50 45° ENE 20:49:06 10° E
Thor Agena Rocket 3.6 20:43:36 53° NNE 20:44:51 78° ESE 20:50:07 10° S
Cosmos 2233 Rocket 3.9 20:39:53 10° SSW 20:46:11 69° W 20:47:22 56° NNW
BREEZE-M DEB (TANK) 3.2 20:45:38 57° N 20:46:17 64° NE 20:54:19 10° SE
IRIDIUM 106 4.4 20:41:34 10° S 20:46:41 57° W 20:46:41 57° W
Cosmos 1544 Rocket 3.6 20:46:51 73° E 20:46:52 73° E 20:51:16 10° S
Cosmos 2150 Rocket 4.0 20:48:09 63° N 20:49:02 83° ENE 20:54:31 10° SSE
Cosmos 2219 Rocket 3.9 20:45:50 10° SW 20:47:58 19° WSW 20:47:58 19° WSW
Resurs 1-4 Rocket 4.2 20:52:55 12° WSW 20:52:55 12° WSW 20:53:45 10° WSW
ATLAS 5 CENTAUR R/B 1.7 20:45:46 10° SSW 20:50:27 68° WSW 20:50:27 68° WSW
USA 215 3.6 20:45:13 10° NE 20:51:41 65° SE 20:58:13 10° SW
Cosmos 2228 3.7 20:55:30 41° NE 20:56:20 48° E 21:00:29 10° SSE
Skynet4D Del rocket 4.3 20:55:53 44° NW 20:58:01 58° N 21:04:47 10° ENE
Meteor 2-19 Rocket 4.4 20:56:56 51° NW 20:58:22 66° W 21:04:31 10° S
Cosmos 1626 Rocket 4.3 20:55:48 10° S 21:00:11 50° E 21:02:07 29° NE
MOZ.5/SAFIR/RUBIN 5/SL-8 3.7 20:56:24 10° S 21:01:00 62° WSW 21:01:20 60° W
Meteor 2-1 Rocket 4.3 21:00:17 42° N 21:02:24 85° E 21:08:23 10° S
Meteor 2-15 Rocket 4.5 20:56:32 10° SSW 21:02:34 59° W 21:04:08 46° NW
H-2A R/B 4.0 20:48:37 10° W 21:02:31 31° WNW 21:02:31 31° WNW
ISS -0.5 21:02:44 10° S 21:04:52 15° SSE 21:07:00 10° ESE
YAOGAN 6 4.2 21:04:06 21° ENE 21:05:37 30° ESE 21:08:40 10° SSE
IRS-1D 3.6 21:05:49 27° NNE 21:08:50 83° ESE 21:14:15 10° S
Cosmos 1048 Rocket 3.9 21:03:50 10° SSW 21:09:08 65° WNW 21:10:29 47° NNW
Cosmos 1607 4.0 21:07:59 42° WNW 21:09:59 63° WSW 21:16:07 10° SSE
Cosmos 2285 Rocket 4.4 21:07:46 10° S 21:14:03 62° ESE 21:20:17 10° NNE
Cosmos 1464 Rocket 4.4 21:09:32 10° S 21:15:39 61° E 21:21:42 10° NNE
Delta 2 Rocket 4.0 21:16:47 32° NE 21:16:47 32° NE 21:19:24 10° E
Cosmos 2298 Rocket 4.4 21:15:45 42° WNW 21:16:59 50° WSW 21:22:11 10° S
NOSS 0 Rocket 4.0 21:12:13 10° SSW 21:18:15 52° WNW 21:20:58 31° NNW
Lacrosse 5 2.7 21:16:22 30° N 21:18:17 42° ENE 21:23:07 10° SE
SL-16 R/B 3.5 21:14:33 10° SSE 21:20:24 41° E 21:26:03 11° NNE
PAYLOAD A 3.7 21:19:37 24° NNE 21:22:27 87° ESE 21:27:15 10° SSW
SL-16 R/B 4.2 21:19:35 10° S 21:24:32 29° ESE 21:29:27 10° ENE
Cosmos 1606 3.3 21:24:18 30° NNE 21:25:47 51° E 21:29:22 10° SSE
Cosmos 2297 Rocket 3.8 21:30:03 17° W 21:31:50 20° WSW 21:35:56 10° SSW
Cosmos 1809 Rocket 4.4 21:28:12 25° N 21:31:55 82° W 21:38:05 10° S
USA 281 4.2 21:26:49 10° NE 21:33:04 49° ESE 21:39:23 10° S
Cosmos 1238 Rocket 4.2 21:29:52 14° NNE 21:34:25 59° E 21:40:18 10° SSE
Cosmos 1606 Rocket 4.1 21:32:53 19° NNE 21:35:50 57° E 21:40:10 10° SSE
Cosmos 1513 Rocket 4.5 21:31:05 10° SSW 21:37:26 67° W 21:42:23 17° N
Meteor 2-14 Rocket 4.4 21:35:47 22° NNW 21:39:56 79° W 21:46:06 10° S
Envisat 3.1 21:38:32 23° N 21:41:35 56° W 21:46:37 10° SSW
Cosmos 1980 4.0 21:38:22 10° SSW 21:43:46 46° WNW 21:48:06 15° N
COBE Rocket 4.4 21:42:41 30° NW 21:43:55 36° W 21:48:17 10° SSW
CBERS-1 4.1 21:40:50 10° NNE 21:45:55 80° ESE 21:51:06 10° S
CZ-2C R/B 2.8 21:43:56 24° NNW 21:46:38 45° W 21:51:26 10° SSW
APEX 4.2 21:44:04 18° N 21:46:50 48° ENE 21:51:11 10° SSE
Cosmos 2219 3.7 21:45:22 26° WNW 21:48:16 45° WSW 21:53:47 10° S
USA 306 4.3 21:46:20 10° SSW 21:49:48 36° SE 21:53:23 10° ENE
Cosmos 2034 Rocket 4.1 21:44:48 10° S 21:51:17 82° E 21:57:39 10° N
Cosmos 1825 Rocket 4.4 21:50:30 10° S 21:54:54 52° E 21:59:13 10° NNE
Centaur D AC-29 2.4 21:57:26 16° N 21:57:26 16° N 21:59:15 10° NNE
Cosmos 2082 3.9 21:54:55 21° NW 21:58:42 61° WSW 22:04:25 10° SSE
Cosmos 2058 4.1 21:56:00 10° SW 21:59:20 24° W 22:00:15 22° WNW
Meteor 1-28 Rocket 3.4 21:59:12 10° S 22:02:43 47° WSW 22:04:42 22° NW
Cosmos 1818 3.7 21:58:51 15° NNW 22:03:16 71° ENE 22:08:40 10° SSE
Tsikada Rocket 4.0 21:56:57 10° N 22:03:18 82° W 22:09:48 10° S
Cosmos 1869 4.4 22:02:20 22° WNW 22:03:45 28° W 22:07:14 10° SSW
Cosmos 405 Rocket 2.5 22:02:21 14° N 22:05:21 86° E 22:08:59 10° S
Cosmos 1758 Rocket 4.1 22:03:14 10° SSW 22:07:24 39° W 22:10:43 15° NNW
Cosmos 2237 Rocket 3.0 22:02:32 10° SW 22:07:26 30° WNW 22:12:13 10° NNW
Cosmos 2263 Rocket 2.4 22:04:48 18° NW 22:09:01 57° WSW 22:14:40 10° S
Cosmos 614 Rocket 4.0 22:09:34 10° SSW 22:14:45 84° ESE 22:19:54 10° NNE
Cosmos 1484 Rocket 2.6 22:14:50 10° N 22:18:26 61° W 22:22:04 10° SSW
Cosmos 44 3.1 22:24:50 10° SSW 22:29:17 83° WNW 22:33:57 10° NNE
Cosmos 2227 Rocket 4.3 22:27:18 10° WSW 22:29:17 12° SW 22:31:16 10° SW
CZ-2C R/B 3.1 22:24:23 10° S 22:29:48 48° WSW 22:35:11 10° NW
OAO 2 Rocket 3.9 22:25:39 12° NW 22:30:17 49° NNE 22:35:20 10° E
SEDSat Delta rocket 3.0 22:26:13 10° W 22:30:33 81° N 22:35:26 10° E
Aurora 2 Rocket 4.2 22:23:49 10° W 22:31:29 41° NNW 22:37:06 10° NE
BREEZE-M DEB (TANK) 2.7 22:31:23 11° W 22:33:13 34° SSW 22:36:38 10° SE
Cosmos 1634 Rocket 4.1 22:27:40 10° S 22:33:56 89° ESE 22:40:07 10° N
USA 215 4.0 22:29:26 10° N 22:34:51 28° WNW 22:40:19 10° WSW
BREEZE M DEB (TANK) 4.4 22:34:09 10° SW 22:37:50 72° SE 22:50:49 10° NE
SL-19 R/B 4.2 22:34:01 10° NNE 22:39:20 83° WNW 22:44:59 10° SSW
Cosmos 2227 4.2 22:34:24 10° NNW 22:40:01 80° WSW 22:45:43 10° SSE
USA 305 2.9 22:38:29 10° SSW 22:40:04 30° SE 22:41:38 10° ENE
ISS -3.5 22:38:30 10° WSW 22:41:48 48° NW 22:45:02 10° NNE
Cosmos 2279 Rocket 4.3 22:42:34 10° S 22:48:54 76° E 22:55:09 10° N
Cosmos 1500 3.5 22:45:16 10° S 22:48:54 66° E 22:52:28 10° NNE
Skynet4D Del rocket 4.5 22:43:45 10° W 22:50:38 45° NNW 22:56:38 10° ENE
